Flag for Canada Weather past 2 weeks in Vaughan, Ontario, Canada

Now
45 °F

Passing clouds.


Feels Like: 39 °F
Forecast: 28 / 51 °F
Wind: 12 mph from North

Location: Toronto Buttonville

Current Time: Apr 25, 2015 at 12:55:11 PM

Latest Report: Apr 25, 2015 at 12:00 PM


Visibility: 15 mi

Pressure: 29.96 "Hg

Humidity: 46%

Dew point: 25 °F

Location of VaughanLocation

Historic Weather in Vaughan — Graph

°F

Vaughan temperature yesterday

Maximum temperature yesterday: 43 °F (at 2:00 PM)
Minimum temperature yesterday: 28 °F (at 6:00 AM)
Average temperature yesterday: 35 °F

Past Weeks' High & Low Weather Summary

 TemperatureHumidityPressure
High73 °F (Apr 13, 4:00 PM)100% (Apr 14, 5:00 AM)30.42 "Hg (Apr 14, 5:00 AM)
Low27 °F (Apr 25, 6:00 AM)20% (Apr 14, 4:00 PM)29.38 "Hg (Apr 20, 6:00 PM)
Average46 °F61%29.97 "Hg
* Reported Apr 10 11:00 AM — Apr 25 11:00 AM, Vaughan, Weather by CustomWeather, © 2015

Note: Actual official high and low records may vary slightly from our data, if they occured in-between our weather recording intervals... More about our weather records

Advertising

Vaughan weather history for previous 24 hours

 ConditionsComfort  
Time TempWeatherWind HumidityBarometerVisibility
11:00 AM
Sat, Apr 25
43 °FPassing clouds.12 mph46%29.98 "Hg15 mi
10:00 AM41 °FPassing clouds.7 mph53%29.98 "Hg15 mi
9:00 AM39 °FPassing clouds.7 mph56%29.99 "Hg15 mi
8:00 AM34 °FPassing clouds.7 mph70%30.00 "Hg15 mi
7:00 AM28 °FPassing clouds.No wind80%30.01 "Hg15 mi
6:00 AM27 °FPassing clouds.2 mph86%30.00 "Hg15 mi
5:00 AM28 °FClear.2 mph80%30.01 "Hg15 mi
4:00 AM30 °FPassing clouds.8 mph75%30.01 "Hg15 mi
3:00 AM30 °FPassing clouds.6 mph75%30.01 "Hg15 mi
2:00 AM30 °FPassing clouds.9 mph75%30.02 "Hg15 mi
1:00 AM30 °FClear.5 mph69%30.03 "Hg15 mi
12:00 AM32 °FClear.6 mph64%30.03 "Hg15 mi
11:00 PM
Fri, Apr 24
32 °FPassing clouds.12 mph64%30.03 "Hg15 mi
10:00 PM34 °FPassing clouds.9 mph56%30.05 "Hg15 mi
9:00 PM34 °FPassing clouds.12 mph60%30.04 "Hg15 mi
7:00 PM37 °FPassing clouds.17 mph56%30.01 "Hg15 mi
6:00 PM39 °FPassing clouds.15 mph52%30.01 "Hg15 mi
5:00 PM41 °FPartly sunny.17 mph49%29.99 "Hg15 mi
4:00 PM43 °FPartly sunny.14 mph46%29.98 "Hg15 mi
3:00 PM43 °FPartly sunny.12 mph42%29.98 "Hg15 mi
2:00 PM43 °FPartly sunny.17 mph42%29.98 "Hg15 mi
1:00 PM41 °FPartly sunny.14 mph45%29.99 "Hg15 mi
12:00 PM37 °FPartly sunny.12 mph52%30.00 "Hg15 mi
Weather by CustomWeather, © 2015

See weather overviewHow to use our weather pages